When you browse on this site, cookies collect data to enhance your experience and personalize the content and advertising you see.
Visit our Privacy Policy to learn more. By continuing to use the site, you agree to this use of cookies and data.
  • In Latvia
  • List of Countries
  • For 7 days
  • Water Temperature
  • Satellite Maps
  • Weather Map
  • Weather Widgets
  • user-avatar
    Login

    Hourly Weather Kerewan

    Today, 23 April, Tuesday

    Time Temperature Precipitation Wind Pressure Humidity
    00:00 +26°C° 0 mm 4 mps 756 mmHg 43%
    01:00 +26°C° 0 mm 4 mps 756 mmHg 46%
    02:00 +25°C° 0 mm 3 mps 756 mmHg 48%
    03:00 +24°C° 0 mm 3 mps 756 mmHg 52%
    04:00 +24°C° 0 mm 3 mps 755 mmHg 55%
    05:00 +22°C° 0 mm 3 mps 756 mmHg 60%
    06:00 +24°C° 0 mm 3 mps 756 mmHg 57%
    07:00 +25°C° 0 mm 4 mps 756 mmHg 54%
    08:00 +26°C° 0 mm 4 mps 756 mmHg 52%
    09:00 +29°C° 0 mm 4 mps 756 mmHg 41%
    10:00 +33°C° 0 mm 3 mps 756 mmHg 31%
    11:00 +36°C° 0 mm 3 mps 756 mmHg 20%
    12:00 +37°C° 0 mm 3 mps 755 mmHg 19%
    13:00 +40°C° 0 mm 4 mps 755 mmHg 17%
    14:00 +41°C° 0 mm 4 mps 754 mmHg 15%
    15:00 +40°C° 0 mm 4 mps 754 mmHg 19%
    16:00 +39°C° 0 mm 5 mps 754 mmHg 22%
    17:00 +36°C° 0 mm 6 mps 754 mmHg 26%
    18:00 +34°C° 0 mm 6 mps 754 mmHg 31%
    19:00 +32°C° 0 mm 5 mps 755 mmHg 36%
    20:00 +29°C° 0 mm 5 mps 755 mmHg 42%
    21:00 +29°C° 0 mm 4 mps 755 mmHg 43%
    22:00 +28°C° 0 mm 4 mps 756 mmHg 44%
    23:00 +27°C° 0 mm 4 mps 756 mmHg 46%

    Tomorrow, 24 April, Wednesday

    Time Temperature Precipitation Wind Pressure Humidity
    00:00 +27°C° 0 mm 3 mps 756 mmHg 47%
    01:00 +26°C° 0 mm 3 mps 756 mmHg 48%
    02:00 +25°C° 0 mm 3 mps 755 mmHg 50%
    03:00 +25°C° 0 mm 3 mps 755 mmHg 51%
    04:00 +25°C° 0 mm 3 mps 755 mmHg 53%
    05:00 +24°C° 0 mm 3 mps 755 mmHg 55%
    06:00 +25°C° 0 mm 3 mps 756 mmHg 51%
    07:00 +26°C° 0 mm 3 mps 756 mmHg 47%
    08:00 +27°C° 0 mm 3 mps 757 mmHg 43%
    09:00 +30°C° 0 mm 2 mps 757 mmHg 35%
    10:00 +34°C° 0 mm 2 mps 757 mmHg 27%
    11:00 +36°C° 0 mm 1 mps 757 mmHg 19%
    12:00 +38°C° 0 mm 2 mps 756 mmHg 17%
    13:00 +39°C° 0 mm 2 mps 756 mmHg 16%
    14:00 +40°C° 0 mm 2 mps 755 mmHg 15%
    15:00 +39°C° 0 mm 3 mps 755 mmHg 18%
    16:00 +38°C° 0 mm 4 mps 754 mmHg 21%
    17:00 +37°C° 0 mm 5 mps 754 mmHg 25%
    18:00 +35°C° 0 mm 5 mps 755 mmHg 32%
    19:00 +32°C° 0 mm 5 mps 755 mmHg 39%
    20:00 +29°C° 0 mm 5 mps 756 mmHg 46%
    21:00 +28°C° 0 mm 4 mps 756 mmHg 46%
    22:00 +28°C° 0 mm 4 mps 757 mmHg 47%
    23:00 +28°C° 0 mm 4 mps 757 mmHg 47%

    Day after tomorrow, 25 April, Thursday

    Time Temperature Precipitation Wind Pressure Humidity
    00:00 +27°C° 0 mm 4 mps 757 mmHg 48%
    01:00 +27°C° 0 mm 4 mps 756 mmHg 48%
    02:00 +26°C° 0 mm 4 mps 756 mmHg 49%
    03:00 +26°C° 0 mm 4 mps 756 mmHg 50%
    04:00 +25°C° 0 mm 3 mps 756 mmHg 51%
    05:00 +25°C° 0 mm 3 mps 756 mmHg 52%
    06:00 +26°C° 0 mm 3 mps 756 mmHg 47%
    07:00 +27°C° 0 mm 3 mps 757 mmHg 43%
    08:00 +28°C° 0 mm 2 mps 757 mmHg 38%
    09:00 +31°C° 0 mm 2 mps 757 mmHg 31%
    10:00 +35°C° 0 mm 2 mps 757 mmHg 24%
    11:00 +37°C° 0 mm 2 mps 758 mmHg 17%
    12:00 +39°C° 0 mm 3 mps 757 mmHg 16%
    13:00 +40°C° 0 mm 3 mps 756 mmHg 16%
    14:00 +42°C° 0 mm 4 mps 755 mmHg 15%
    15:00 +40°C° 0 mm 5 mps 755 mmHg 18%
    16:00 +39°C° 0 mm 5 mps 755 mmHg 20%
    17:00 +38°C° 0 mm 6 mps 754 mmHg 23%
    18:00 +34°C° 0 mm 6 mps 755 mmHg 29%
    19:00 +32°C° 0 mm 5 mps 756 mmHg 35%
    20:00 +29°C° 0 mm 5 mps 757 mmHg 41%
    21:00 +28°C° 0 mm 5 mps 757 mmHg 42%
    22:00 +28°C° 0 mm 5 mps 757 mmHg 43%
    23:00 +27°C° 0 mm 4 mps 757 mmHg 44%

    26 April, Friday

    Time Temperature Precipitation Wind Pressure Humidity
    00:00 +27°C° 0 mm 4 mps 757 mmHg 45%
    01:00 +27°C° 0 mm 4 mps 756 mmHg 47%
    02:00 +26°C° 0 mm 4 mps 756 mmHg 48%
    03:00 +26°C° 0 mm 4 mps 756 mmHg 49%
    04:00 +26°C° 0 mm 3 mps 756 mmHg 51%
    05:00 +25°C° 0 mm 3 mps 756 mmHg 52%
    06:00 +26°C° 0 mm 3 mps 757 mmHg 48%
    07:00 +27°C° 0 mm 3 mps 757 mmHg 44%
    08:00 +28°C° 0 mm 3 mps 758 mmHg 40%
    09:00 +31°C° 0 mm 3 mps 758 mmHg 32%
    10:00 +35°C° 0 mm 3 mps 758 mmHg 25%
    11:00 +37°C° 0 mm 3 mps 758 mmHg 18%
    12:00 +39°C° 0 mm 3 mps 757 mmHg 17%
    13:00 +41°C° 0 mm 4 mps 756 mmHg 16%
    14:00 +42°C° 0 mm 4 mps 755 mmHg 15%
    15:00 +41°C° 0 mm 5 mps 755 mmHg 17%
    16:00 +39°C° 0 mm 5 mps 755 mmHg 19%
    17:00 +38°C° 0 mm 6 mps 754 mmHg 21%
    18:00 +35°C° 0 mm 6 mps 755 mmHg 26%
    19:00 +32°C° 0 mm 5 mps 756 mmHg 31%
    20:00 +29°C° 0 mm 5 mps 756 mmHg 36%
    21:00 +29°C° 0 mm 5 mps 757 mmHg 38%
    22:00 +28°C° 0 mm 5 mps 757 mmHg 41%
    23:00 +28°C° 0 mm 4 mps 757 mmHg 44%

    27 April, Saturday

    Time Temperature Precipitation Wind Pressure Humidity
    00:00 +27°C° 0 mm 4 mps 756 mmHg 45%
    01:00 +27°C° 0 mm 4 mps 756 mmHg 47%
    02:00 +26°C° 0 mm 4 mps 755 mmHg 48%
    03:00 +26°C° 0 mm 4 mps 755 mmHg 50%
    04:00 +25°C° 0 mm 4 mps 755 mmHg 51%
    05:00 +25°C° 0 mm 4 mps 755 mmHg 53%
    06:00 +26°C° 0 mm 4 mps 756 mmHg 48%
    07:00 +27°C° 0 mm 3 mps 756 mmHg 44%
    08:00 +28°C° 0 mm 3 mps 757 mmHg 39%
    09:00 +31°C° 0 mm 3 mps 756 mmHg 31%
    10:00 +36°C° 0 mm 3 mps 756 mmHg 23%
    11:00 +39°C° 0 mm 3 mps 756 mmHg 15%
    12:00 +41°C° 0 mm 4 mps 755 mmHg 14%
    13:00 +42°C° 0 mm 4 mps 755 mmHg 13%
    14:00 +43°C° 0 mm 4 mps 754 mmHg 13%
    15:00 +41°C° 0 mm 5 mps 754 mmHg 16%
    16:00 +40°C° 0 mm 6 mps 754 mmHg 20%
    17:00 +38°C° 0 mm 6 mps 754 mmHg 23%
    18:00 +34°C° 0 mm 6 mps 754 mmHg 30%
    19:00 +32°C° 0 mm 6 mps 755 mmHg 36%
    20:00 +29°C° 0 mm 5 mps 756 mmHg 43%
    21:00 +28°C° 0 mm 5 mps 756 mmHg 45%
    22:00 +28°C° 0 mm 5 mps 756 mmHg 47%
    23:00 +27°C° 0 mm 4 mps 757 mmHg 49%

    28 April, Sunday

    Time Temperature Precipitation Wind Pressure Humidity
    00:00 +27°C° 0 mm 4 mps 756 mmHg 50%
    01:00 +27°C° 0 mm 4 mps 755 mmHg 51%
    02:00 +26°C° 0 mm 3 mps 755 mmHg 53%
    03:00 +26°C° 0 mm 3 mps 755 mmHg 54%
    04:00 +25°C° 0 mm 3 mps 755 mmHg 54%
    05:00 +25°C° 0 mm 3 mps 755 mmHg 55%
    06:00 +26°C° 0 mm 4 mps 756 mmHg 51%
    07:00 +27°C° 0 mm 4 mps 756 mmHg 46%
    08:00 +28°C° 0 mm 4 mps 756 mmHg 42%
    09:00 +32°C° 0 mm 4 mps 756 mmHg 33%
    10:00 +35°C° 0 mm 3 mps 756 mmHg 25%
    11:00 +39°C° 0 mm 3 mps 756 mmHg 17%
    12:00 +40°C° 0 mm 3 mps 755 mmHg 15%
    13:00 +43°C° 0 mm 3 mps 754 mmHg 13%
    14:00 +44°C° 0 mm 3 mps 754 mmHg 12%
    15:00 +43°C° 0 mm 4 mps 754 mmHg 13%
    16:00 +43°C° 0 mm 5 mps 753 mmHg 15%
    17:00 +42°C° 0 mm 5 mps 753 mmHg 16%
    18:00 +40°C° 0 mm 5 mps 754 mmHg 18%
    19:00 +37°C° 0 mm 5 mps 754 mmHg 19%
    20:00 +36°C° 0 mm 5 mps 755 mmHg 20%
    21:00 +34°C° 0 mm 5 mps 755 mmHg 23%
    22:00 +33°C° 0 mm 5 mps 756 mmHg 26%
    23:00 +30°C° 0 mm 5 mps 756 mmHg 29%
    Show more